Vorticity
4 1 15 25 18 16 16 19 17 33 17 33 24 44 11 21 13 17 56 65 23 4 6 9 8 9 10 7 8 5 3 3 2 8 8 6 6 3 6 5 9 1 4 10 12
3 10 19 23 15 15 18 21 28 13 29 20 26 22 3 15 26 7 -4 25 53 21 8 6 8 12 7 7 9 4 6 3 4 6 10 4 5 4 5 7 8 2 5 12 12
1 13 22 16 14 25 27 19 28 23 11 29 23 19 -26 20 12 23 29 9 49 31 9 16 12 11 9 9 2 5 5 3 4 6 7 5 6 5 3 12 5 12 9 11 9
4 13 22 11 19 31 27 31 14 22 28 18 23 13 2 19 17 7 41 1 19 32 23 19 18 10 11 6 7 6 6 4 3 6 4 2 6 4 3 -14 3 11 15 10 6
9 12 15 15 33 32 24 30 16 14 15 29 22 8 54 5 9 21 21 25 15 44 28 13 -5 16 13 6 8 6 5 4 3 7 5 4 7 5 0 -2 1 16 14 7 7
10 10 13 19 36 29 24 22 23 10 19 9 15 -11 7 -7 25 5 26 38 19 27 34 13 -20 45 7 10 8 7 5 3 2 7 4 4 6 5 -1 10 -4 13 11 7 6
11 7 8 30 44 30 20 19 19 13 26 16 12 22 20 23 8 39 9 19 28 37 11 12 8 -32 15 4 7 8 8 3 5 8 3 5 6 5 0 -1 -2 8 11 7 6
11 5 8 32 41 46 18 25 19 7 23 12 9 0 -1 1 30 7 1 31 15 43 13 40 43 45 3 8 6 7 6 4 5 11 2 2 6 5 1 3 -1 5 10 8 6
12 5 8 23 40 51 43 27 16 12 11 11 8 4 8 5 11 2 18 10 47 38 40 -17 -36 9 14 6 6 4 7 6 3 11 1 -1 4 4 -1 0 4 3 12 7 6
12 5 13 17 38 13 25 34 38 28 19 -6 -2 -1 8 0 11 -3 4 15 38 20 20 14 7 -33 4 6 1 7 8 8 7 10 2 7 2 4 1 -0 2 2 13 8 6
12 5 16 19 29 5 7 12 18 25 38 14 22 4 10 24 8 14 6 21 32 10 9 -10 37 19 36 10 10 4 10 10 5 5 1 0 5 5 2 4 4 4 7 9 9
13 5 14 35 20 12 10 4 23 10 14 14 2 27 26 2 12 14 3 9 35 25 26 -12 -57 17 23 16 4 5 9 7 6 3 3 7 7 2 1 5 2 7 8 11 9
14 6 10 46 14 8 -1 1 18 24 26 20 20 33 19 22 23 41 31 21 75 19 18 0 18 9 -5 9 8 5 8 6 9 3 -0 4 9 5 5 5 1 3 9 10 8
9 10 6 37 18 6 8 -6 4 20 8 2 21 18 33 30 42 31 34 43 58 17 -21 11 -20 31 10 13 9 6 6 10 5 4 0 2 3 3 2 0 2 5 -1 14 8
7 12 4 13 41 11 8 -3 4 9 20 12 15 33 37 2 10 1 18 29 39 -8 -14 -19 34 -7 16 17 5 7 9 7 8 4 7 2 4 6 1 6 6 2 1 8 7
6 13 5 6 19 32 -0 8 -7 6 23 28 9 10 18 15 24 23 38 -5 -1 27 5 27 -27 47 12 17 9 18 8 8 1 6 6 7 6 4 7 3 8 4 7 8 14
10 11 9 5 7 42 17 9 22 4 11 21 4 5 17 4 30 1 6 8 5 -26 17 20 23 11 13 25 -2 17 11 7 1 7 15 5 6 4 4 -1 -1 2 11 7 9
7 10 12 6 6 9 50 11 11 8 10 16 16 10 9 6 11 4 -15 15 21 -17 -11 -21 36 16 14 11 13 1 19 10 0 -8 10 6 3 11 4 5 -0 10 1 2 1
5 7 11 9 4 5 33 28 9 3 6 8 2 30 15 23 -4 -9 1 12 14 31 20 17 3 32 15 1 10 11 16 19 3 11 3 8 7 8 9 6 3 4 2 6 7
3 7 13 10 5 6 -5 18 49 10 9 9 9 -5 13 23 3 -2 -13 -1 -8 -9 -4 13 21 13 1 5 20 7 25 8 7 4 8 4 7 7 8 6 7 2 2 4 9
2 9 6 11 15 8 0 9 20 48 5 9 -5 8 7 -3 3 4 1 19 20 16 21 10 7 13 15 17 14 25 7 13 6 10 14 6 11 -2 11 15 3 8 4 4 5
0 6 7 8 12 11 5 6 9 16 51 0 11 3 -3 2 -1 6 18 13 13 7 10 5 9 11 9 2 1 2 11 22 21 13 -2 4 11 4 4 5 12 17 11 3 7
7 4 7 5 8 11 9 3 6 9 17 43 20 -1 5 6 7 6 3 18 2 18 13 12 27 17 2 8 7 9 9 10 10 14 20 19 10 9 5 2 4 6 7 16 4
9 4 2 8 8 7 10 9 3 7 7 15 27 42 14 2 0 0 -11 -8 15 -1 8 16 1 -6 7 22 14 9 7 10 7 4 2 5 11 15 17 17 8 2 5 12 14
11 6 1 5 5 8 8 11 8 3 7 9 9 16 40 33 5 -2 -3 -3 3 5 6 2 5 10 9 -1 9 13 22 15 -8 14 8 9 7 2 1 14 9 12 10 7 4
7 12 6 6 8 9 8 8 11 6 3 4 9 9 15 18 41 32 12 12 11 14 14 9 11 8 7 2 7 0 8 17 15 22 29 26 19 29 28 15 12 8 8 10 12
-1 5 10 3 5 6 8 9 10 12 6 3 3 11 7 11 12 12 39 34 9 2 6 7 8 2 29 15 12 9 14 5 1 1 3 7 1 0 3 15 21 14 10 8 12
Height
5680 5660 5638 5614 5599 5583 5565 5547 5532 5521 5510 5502 5495 5492 5497 5498 5503 5508 5515 5532 5553 5571 5588 5605 5623 5640 5651 5664 5678 5689 5700 5713 5728 5738 5745 5749 5755 5761 5767 5773 5778 5781 5784 5787 5789
5668 5644 5620 5599 5584 5566 5546 5531 5520 5510 5501 5495 5490 5491 5494 5496 5500 5505 5511 5521 5535 5552 5574 5593 5611 5627 5641 5658 5669 5680 5697 5713 5727 5734 5744 5748 5754 5761 5766 5773 5776 5780 5782 5784 5787
5657 5633 5607 5587 5571 5549 5532 5519 5510 5502 5495 5490 5490 5491 5492 5495 5498 5502 5507 5513 5523 5538 5559 5580 5601 5617 5632 5648 5661 5678 5695 5707 5719 5731 5739 5745 5751 5757 5764 5771 5774 5775 5779 5782 5786
5647 5621 5594 5576 5555 5535 5520 5511 5504 5497 5492 5489 5489 5491 5493 5494 5498 5501 5505 5511 5517 5530 5549 5572 5591 5604 5621 5639 5659 5677 5691 5700 5712 5727 5733 5739 5747 5755 5763 5768 5769 5771 5776 5780 5784
5639 5612 5585 5565 5542 5524 5513 5505 5499 5494 5490 5490 5490 5492 5490 5493 5497 5499 5502 5508 5514 5522 5542 5569 5587 5600 5617 5641 5658 5671 5682 5694 5707 5722 5729 5735 5744 5754 5760 5763 5766 5772 5776 5780 5784
5634 5606 5580 5555 5533 5516 5507 5500 5496 5493 5490 5491 5491 5492 5494 5495 5496 5497 5500 5504 5512 5520 5538 5562 5585 5593 5616 5635 5651 5664 5676 5689 5703 5715 5724 5731 5740 5748 5754 5760 5765 5771 5774 5778 5783
5630 5604 5576 5550 5528 5511 5503 5498 5494 5492 5491 5493 5493 5494 5495 5497 5498 5498 5500 5504 5509 5521 5541 5562 5581 5597 5612 5628 5644 5657 5670 5683 5699 5709 5718 5727 5738 5745 5751 5756 5763 5769 5772 5777 5782
5628 5604 5576 5550 5528 5512 5503 5498 5495 5493 5493 5494 5494 5496 5497 5498 5500 5500 5502 5503 5508 5520 5541 5562 5583 5595 5610 5628 5639 5649 5664 5678 5695 5705 5714 5722 5733 5743 5748 5755 5762 5767 5770 5774 5780
5629 5606 5579 5556 5535 5518 5505 5499 5496 5494 5494 5495 5498 5498 5498 5499 5502 5504 5504 5506 5509 5518 5539 5561 5577 5584 5601 5618 5629 5640 5659 5676 5691 5701 5712 5718 5730 5740 5746 5752 5758 5764 5769 5772 5778
5631 5608 5584 5562 5544 5528 5515 5506 5500 5497 5498 5498 5497 5501 5500 5500 5501 5506 5508 5510 5513 5522 5541 5560 5573 5586 5600 5610 5619 5635 5658 5680 5689 5700 5709 5716 5727 5737 5744 5751 5757 5762 5766 5772 5777
5633 5612 5590 5569 5554 5540 5528 5519 5513 5506 5501 5503 5501 5500 5500 5501 5501 5504 5510 5514 5515 5525 5543 5560 5576 5591 5600 5626 5641 5653 5667 5680 5687 5697 5707 5714 5726 5733 5739 5745 5752 5757 5763 5769 5775
5636 5616 5597 5576 5564 5551 5541 5531 5522 5515 5508 5501 5499 5498 5500 5500 5500 5502 5511 5518 5521 5529 5548 5567 5580 5591 5611 5627 5636 5650 5664 5676 5688 5694 5703 5712 5722 5729 5738 5744 5751 5754 5761 5767 5772
5640 5621 5603 5585 5574 5562 5552 5542 5531 5523 5514 5509 5506 5503 5500 5499 5500 5503 5509 5518 5526 5538 5559 5580 5591 5599 5609 5621 5634 5650 5665 5678 5688 5693 5703 5713 5720 5724 5731 5736 5741 5748 5755 5761 5768
5645 5627 5611 5593 5584 5574 5563 5550 5544 5534 5527 5522 5514 5510 5506 5506 5507 5509 5513 5522 5533 5552 5569 5584 5596 5604 5614 5628 5640 5654 5666 5681 5687 5694 5700 5707 5715 5721 5729 5734 5741 5747 5753 5760 5764
5651 5634 5620 5603 5591 5584 5574 5562 5553 5545 5539 5534 5530 5524 5519 5518 5517 5520 5526 5535 5554 5569 5587 5598 5605 5612 5619 5632 5644 5657 5667 5678 5688 5695 5701 5707 5714 5719 5726 5733 5739 5746 5752 5757 5762
5657 5641 5627 5612 5599 5588 5581 5571 5563 5557 5551 5551 5546 5541 5537 5535 5537 5540 5543 5554 5572 5589 5598 5604 5609 5616 5627 5635 5645 5656 5667 5676 5685 5690 5696 5702 5711 5716 5724 5735 5740 5745 5749 5754 5760
5664 5647 5636 5622 5610 5597 5588 5582 5574 5569 5566 5564 5560 5558 5557 5556 5558 5565 5572 5579 5587 5597 5606 5610 5616 5623 5629 5635 5645 5653 5663 5670 5675 5680 5688 5698 5707 5715 5722 5730 5736 5742 5746 5749 5755
5669 5654 5644 5632 5619 5609 5597 5594 5585 5579 5577 5577 5575 5575 5576 5576 5579 5583 5588 5598 5607 5610 5616 5620 5623 5627 5632 5640 5648 5654 5662 5666 5674 5679 5690 5695 5699 5709 5715 5725 5730 5736 5739 5740 5745
5674 5660 5652 5640 5628 5620 5610 5601 5591 5592 5590 5590 5589 5588 5592 5591 5595 5600 5605 5610 5614 5617 5622 5622 5627 5631 5638 5643 5650 5656 5662 5673 5679 5686 5686 5691 5695 5703 5710 5718 5724 5730 5736 5739 5743
5679 5666 5659 5648 5636 5628 5623 5610 5601 5600 5600 5600 5600 5600 5601 5605 5608 5609 5611 5615 5620 5622 5623 5627 5630 5634 5639 5646 5651 5657 5664 5668 5674 5676 5682 5687 5691 5700 5708 5715 5720 5724 5729 5733 5738
5684 5673 5665 5655 5645 5640 5631 5619 5612 5607 5608 5609 5609 5609 5611 5614 5615 5616 5617 5619 5620 5622 5624 5628 5634 5637 5641 5645 5650 5655 5659 5666 5673 5675 5681 5684 5690 5701 5706 5711 5716 5722 5725 5728 5733
5688 5680 5669 5661 5655 5647 5637 5629 5622 5616 5613 5614 5615 5616 5616 5617 5619 5620 5622 5622 5622 5622 5625 5628 5631 5635 5641 5646 5648 5653 5658 5663 5666 5673 5679 5681 5688 5694 5699 5704 5709 5714 5718 5722 5726
5689 5682 5675 5667 5660 5652 5644 5637 5631 5624 5620 5617 5618 5619 5620 5620 5621 5621 5623 5625 5627 5628 5628 5629 5631 5633 5636 5641 5646 5650 5654 5658 5663 5667 5671 5675 5683 5687 5693 5697 5701 5705 5709 5713 5718
5690 5684 5678 5671 5663 5656 5649 5643 5637 5632 5627 5622 5619 5618 5619 5621 5622 5623 5624 5625 5626 5626 5628 5629 5630 5633 5638 5642 5642 5644 5647 5652 5655 5659 5665 5668 5676 5679 5683 5688 5692 5696 5700 5704 5708
5690 5685 5679 5673 5666 5659 5653 5648 5643 5637 5632 5628 5623 5619 5618 5618 5619 5621 5623 5624 5623 5624 5626 5627 5627 5628 5630 5634 5637 5641 5643 5644 5647 5651 5654 5662 5665 5670 5673 5677 5681 5685 5689 5694 5698
5691 5685 5679 5672 5668 5662 5656 5650 5646 5642 5637 5632 5627 5622 5619 5617 5617 5617 5617 5617 5619 5620 5622 5623 5625 5625 5626 5628 5631 5632 5635 5638 5641 5643 5647 5652 5656 5660 5663 5665 5669 5673 5677 5682 5686
5689 5684 5677 5673 5667 5662 5657 5652 5646 5642 5639 5634 5630 5625 5621 5619 5616 5615 5613 5612 5613 5614 5616 5618 5619 5620 5621 5622 5623 5624 5630 5632 5634 5637 5641 5642 5650 5651 5654 5656 5658 5661 5665 5669 5672